Weather Roundup
Issued by NWS Springfield, MO

Home | Current Version | Previous Version | Text Only | Print | Product List | Glossary On
Versions: 1 2 3 4 5 6 7 8 9 10 11 12 13 14 15 16 17 18 19 20 21 22 23 24 25 26 27 28 29 30 31 32 33 34 35 36 37 38 39 40 41 42 43 44 45 46 47 48 49 50
000
NZUS99 KSGF 200807
HRRSGF

HOURLY WEATHER
NATIONAL WEATHER SERVICE SPRINGFIELD MO
200 AM CST TUE FEB 20 2018

......SGF CWA......

CITY           SKY/WX    TMP DP  RH WIND       PRES   REMARKS
SPRINGFIELD    CLOUDY    67  55  65 S23G36    29.82R
JOPLIN         CLOUDY    65  59  81 S23G39    29.78R
WEST PLAINS    CLOUDY    68  56  65 S14G31    29.93S
ROLLA          CLOUDY    66  57  72 S23G31    29.83F
OSAGE BEACH    CLOUDY    65  57  75 S16G23    29.80S

......SURROUNDING SGF CWA......

CITY           SKY/WX    TMP DP  RH WIND       PRES   REMARKS
CHANUTE        FOG       36  35  96 N10       29.80R VSB 1   WCI  28
PARSONS        FOG       39  39 100 NW6       29.80R VSB 1   WCI  35
COFFEYVILLE    LGT RAIN  40  40 100 NW9       29.78R VSB 3/4 WCI  34
EMPORIA        CLOUDY    28  26  92 NE9       29.79F FOG     WCI  19
GROVE OK       CLOUDY    68  59  73 S13G20    29.81R
ROGERS AR      CLOUDY    67  57  70 S22G28    29.85R
SILOAM SPRINGS LGT RAIN  66  57  72 S12       29.86R
HARRISON AR    CLOUDY    67  57  70 S16G32    29.87F
NEAR YELLVILLE MOCLDY    69  58  67 S8        29.91S

......KANSAS AND MISSOURI......

CITY           SKY/WX    TMP DP  RH WIND       PRES   REMARKS
KANSAS CTY INT FRZ DRZL  30  29  96 NW8       29.83R FOG     WCI  22
DOWNTOWN KC    LGT RAIN  33  30  88 NW9       29.84R WCI  25
COLUMBIA       LGT RAIN  62  59  90 S12       29.77F
SEDALIA        CLOUDY    42  42 100 NW9       29.81R
ST JOSEPH      CLOUDY    28  28 100 NW10      29.87S WCI  19
ST LOUIS       CLOUDY    67  59  75 S16G24    29.86R
SPIRIT OF STL  CLOUDY    69  59  70 S15G23    29.82F
KIRKSVILLE     HVY RAIN  37  37 100 E10       29.78F FOG     WCI  30
WICHITA        CLOUDY    29  28  96 N13       29.80R FOG     WCI  19
TOPEKA         CLOUDY    28  27  96 N7        29.83F WCI  21
OLATHE         CLOUDY    31  31 100 N7        29.81S FOG     WCI  24

......TENNESSEE......

CITY           SKY/WX    TMP DP  RH WIND       PRES   REMARKS
MEMPHIS        FAIR      68  61  78 S18G30    30.07R
NASHVILLE      FAIR      68  56  65 S16       30.17S

......ARKANSAS.......

CITY           SKY/WX    TMP DP  RH WIND       PRES   REMARKS
FAYETTEVILLE   CLOUDY    67  59  75 S20G26    29.85R
FT SMITH       CLOUDY    72  61  68 S12       29.86S
LITTLE ROCK    CLOUDY    69  60  73 S12       30.00R

......OKLAHOMA.......

CITY           SKY/WX    TMP DP  RH WIND       PRES   REMARKS
TULSA          CLOUDY    68  62  81 S16       29.75R
PONCA CITY     FOG       35  33  92 N6        29.77R VSB 1   WCI  30
MCALESTER      CLOUDY    69  63  81 S14G26    29.82S
OKLAHOMA CITY  CLOUDY    67  61  81 S17G26    29.73S

......IOWA............

CITY           SKY/WX    TMP DP  RH WIND       PRES   REMARKS
DES MOINES     TSTM      28  26  92 W10       29.83R FOG     WCI  19
QUAD CITIES    RAIN      39  39 100 CALM      29.81S FOG

......ILLINOIS........

CITY           SKY/WX    TMP DP  RH WIND       PRES   REMARKS
QUINCY         CLOUDY    49  48  97 W14G23    29.82R
CHICAGO        HVY RAIN  60  58  92 SW16      29.81R FOG



USA.gov is the U.S. government's official web portal to all federal, state and local government web resources and services.